FW7746 Weather Reports


time (UTC)temp
C
wind
direction
speed
KPH
gust
KPH
rain 1hr
cm
rain 24hr
cm
rain mn
cm
humidity
%
barometer
mb
20260509210104 25 332 0.0 4.8 0.00 0.00 0.00 18 1016.3
20260509205604 25 314 1.6 12.9 0.00 0.00 0.00 18 1016.3
20260509205104 25 1 0.0 4.8 0.00 0.00 0.00 19 1016.4
20260509204604 25 93 0.0 1.6 0.00 0.00 0.00 19 1016.4
20260509204103 25 346 0.0 4.8 0.00 0.00 0.00 19 1016.6
20260509203604 25 323 1.6 4.8 0.00 0.00 0.00 19 1016.6
20260509203104 25 313 1.6 4.8 0.00 0.00 0.00 18 1016.6
20260509202603 26 316 1.6 4.8 0.00 0.00 0.00 19 1016.7
20260509202104 26 198 0.0 3.2 0.00 0.00 0.00 19 1016.8
20260509201104 25 1 0.0 1.6 0.00 0.00 0.00 20 1016.8
20260509200604 25 348 0.0 4.8 0.00 0.00 0.00 19 1016.9
20260509200104 25 18 0.0 3.2 0.00 0.00 0.00 21 1017.0
20260509195104 24 63 1.6 4.8 0.00 0.00 0.00 20 1017.1
20260509194603 24 338 1.6 4.8 0.00 0.00 0.00 21 1017.2
20260509194103 24 68 0.0 4.8 0.00 0.00 0.00 19 1017.3
20260509193604 24 77 1.6 4.8 0.00 0.00 0.00 20 1017.4
20260509193104 24 72 1.6 4.8 0.00 0.00 0.00 20 1017.4
20260509192104 23 3 0.0 4.8 0.00 0.00 0.00 22 1017.6
20260509191103 23 233 0.0 4.8 0.00 0.00 0.00 22 1017.6
20260509190104 23 43 0.0 3.2 0.00 0.00 0.00 23 1017.9
20260509185104 22 98 0.0 3.2 0.00 0.00 0.00 24 1018.0
20260509184604 22 98 0.0 0.0 0.00 0.00 0.00 23 1018.1
20260509184104 22 105 1.6 9.7 0.00 0.00 0.00 24 1018.2
20260509183604 22 168 0.0 0.0 0.00 0.00 0.00 26 1018.1
20260509183104 22 163 0.0 0.0 0.00 0.00 0.00 25 1018.2
20260509182604 21 161 1.6 8.0 0.00 0.00 0.00 26 1018.2
20260509182103 21 141 0.0 3.2 0.00 0.00 0.00 27 1018.2
20260509180604 21 82 0.0 3.2 0.00 0.00 0.00 29 1018.3
20260509180104 20 67 0.0 3.2 0.00 0.00 0.00 30 1018.4
20260509175603 20 310 1.6 4.8 0.00 0.00 0.00 31 1018.5
20260509175104 20 105 0.0 1.6 0.00 0.00 0.00 32 1018.6
20260509174603 20 106 0.0 3.2 0.00 0.00 0.00 31 1018.5
20260509174104 20 121 0.0 3.2 0.00 0.00 0.00 33 1018.5
20260509173604 20 121 1.6 4.8 0.00 0.00 0.00 33 1018.4
20260509173103 19 130 0.0 3.2 0.00 0.00 0.00 34 1018.6
20260509172604 19 110 1.6 3.2 0.00 0.00 0.00 34 1018.7
20260509172104 18 113 0.0 4.8 0.00 0.00 0.00 35 1018.7
20260509171604 18 165 0.0 0.0 0.00 0.00 0.00 37 1018.8
20260509171104 18 173 0.0 0.0 0.00 0.00 0.00 38 1018.7
20260509170603 18 183 0.0 0.0 0.00 0.00 0.00 37 1018.8
20260509170104 17 183 0.0 0.0 0.00 0.00 0.00 38 1018.9
20260509165604 17 182 0.0 0.0 0.00 0.00 0.00 38 1018.9
20260509165104 17 182 0.0 0.0 0.00 0.00 0.00 38 1018.9
20260509164604 17 182 0.0 0.0 0.00 0.00 0.00 40 1018.8
20260509164105 16 170 0.0 1.6 0.00 0.00 0.00 39 1019.0
20260509163603 16 169 0.0 0.0 0.00 0.00 0.00 41 1019.0
20260509163104 16 169 0.0 0.0 0.00 0.00 0.00 42 1019.0
20260509162604 16 216 0.0 0.0 0.00 0.00 0.00 44 1019.0
20260509162104 15 216 0.0 3.2 0.00 0.00 0.00 45 1019.0
20260509161604 15 221 0.0 4.8 0.00 0.00 0.00 46 1019.1
20260509161104 15 157 0.0 0.0 0.00 0.00 0.00 49 1019.1
20260509160604 15 156 0.0 0.0 0.00 0.00 0.00 50 1019.1
20260509160104 14 157 0.0 0.0 0.00 0.00 0.00 52 1019.0
20260509155604 14 157 0.0 1.6 0.00 0.00 0.00 53 1019.0
20260509155104 13 200 0.0 0.0 0.00 0.00 0.00 55 1019.1
20260509154603 13 200 0.0 3.2 0.00 0.00 0.00 56 1019.1
20260509154104 13 136 0.0 0.0 0.00 0.00 0.00 57 1019.2
20260509153603 12 135 0.0 1.6 0.00 0.00 0.00 59 1019.1
20260509153104 12 134 0.0 0.0 0.00 0.00 0.00 60 1019.2
20260509152604 12 123 0.0 0.0 0.00 0.00 0.00 61 1019.3
20260509152104 11 121 0.0 0.0 0.00 0.00 0.00 62 1019.5
20260509151604 11 116 0.0 1.6 0.00 0.00 0.00 62 1019.6
20260509150604 11 221 0.0 0.0 0.00 0.00 0.00 65 1019.6
20260509145604 10 238 1.6 4.8 0.00 0.00 0.00 67 1019.4
20260509145104 10 172 0.0 0.0 0.00 0.00 0.00 68 1019.4
20260509144604 10 172 0.0 0.0 0.00 0.00 0.00 68 1019.5
20260509144104 10 171 0.0 1.6 0.00 0.00 0.00 69 1019.5
20260509143604 9 178 0.0 0.0 0.00 0.00 0.00 70 1019.5
20260509142604 8 204 0.0 4.8 0.00 0.00 0.00 71 1019.3
20260509142104 8 181 0.0 3.2 0.00 0.00 0.00 72 1019.3
20260509141604 8 140 0.0 4.8 0.00 0.00 0.00 73 1019.4
20260509141104 7 185 0.0 3.2 0.00 0.00 0.00 73 1019.2
20260509140604 7 230 1.6 8.0 0.00 0.00 0.00 73 1019.2
20260509140105 7 197 0.0 3.2 0.00 0.00 0.00 74 1019.2
20260509134604 6 177 0.0 0.0 0.00 0.00 0.00 76 1019.2
20260509134103 6 177 0.0 0.0 0.00 0.00 0.00 77 1019.3
20260509133104 6 177 0.0 0.0 0.00 0.00 0.00 77 1019.1
20260509132603 6 177 0.0 0.0 0.00 0.00 0.00 77 1019.1
20260509132104 5 177 0.0 0.0 0.00 0.00 0.00 77 1019.0
20260509131604 5 177 0.0 0.0 0.00 0.00 0.00 77 1019.0
20260509130604 5 177 0.0 0.0 0.00 0.00 0.00 76 1018.9
20260509130104 5 177 0.0 0.0 0.00 0.00 0.00 75 1018.9
20260509125104 6 177 0.0 0.0 0.00 0.00 0.00 74 1018.9
20260509124604 6 177 0.0 0.0 0.00 0.00 0.00 74 1019.0
20260509123604 6 190 0.0 3.2 0.00 0.00 0.00 76 1018.7
20260509123104 6 219 0.0 3.2 0.00 0.00 0.00 77 1018.7
20260509122604 6 216 0.0 1.6 0.00 0.00 0.00 76 1018.7
20260509122103 6 247 0.0 0.0 0.00 0.00 0.00 76 1018.7
20260509121604 6 252 0.0 0.0 0.00 0.00 0.00 76 1018.7
20260509121104 6 250 0.0 1.6 0.00 0.00 0.00 76 1018.8
20260509120104 6 254 0.0 0.0 0.00 0.00 0.00 75 1018.8
20260509115604 6 259 0.0 0.0 0.00 0.00 0.00 74 1018.9
20260509115103 6 268 0.0 0.0 0.00 0.00 0.00 73 1018.9
20260509114604 6 273 0.0 0.0 0.00 0.00 0.00 73 1019.0
20260509114104 6 273 0.0 0.0 0.00 0.00 0.00 73 1019.0
20260509113104 6 272 0.0 0.0 0.00 0.00 0.00 73 1019.1
20260509112604 6 272 0.0 0.0 0.00 0.00 0.00 73 1019.1
20260509112104 6 271 0.0 1.6 0.00 0.00 0.00 73 1019.1
20260509111104 6 273 0.0 0.0 0.00 0.00 0.00 73 1019.1
20260509110604 5 310 0.0 0.0 0.00 0.00 0.00 73 1019.1
20260509110104 5 310 0.0 0.0 0.00 0.00 0.00 72 1019.1
20260509105604 5 311 0.0 0.0 0.00 0.00 0.00 71 1019.2
20260509104603 5 316 0.0 0.0 0.00 0.00 0.00 71 1019.4
20260509104108 5 316 0.0 0.0 0.00 0.00 0.00 70 1019.3
20260509103604 6 316 0.0 0.0 0.00 0.00 0.00 70 1019.3
20260509102603 6 316 0.0 0.0 0.00 0.00 0.00 69 1019.2
20260509102104 6 316 0.0 0.0 0.00 0.00 0.00 67 1019.1
20260509101603 6 316 0.0 0.0 0.00 0.00 0.00 67 1019.1
20260509101104 6 316 0.0 0.0 0.00 0.00 0.00 67 1019.2
20260509100604 6 316 0.0 0.0 0.00 0.00 0.00 67 1019.2
20260509100104 6 316 0.0 0.0 0.00 0.00 0.00 67 1019.3
20260509095604 6 316 0.0 0.0 0.00 0.00 0.00 67 1019.3
20260509095104 6 316 0.0 0.0 0.00 0.00 0.00 66 1019.3
20260509094604 6 316 0.0 0.0 0.00 0.00 0.00 66 1019.4
20260509094104 6 316 0.0 0.0 0.00 0.00 0.00 66 1019.4
20260509093104 6 316 0.0 0.0 0.00 0.00 0.00 66 1019.3
20260509092604 6 316 0.0 0.0 0.00 0.00 0.00 66 1019.4
20260509092104 6 316 0.0 0.0 0.00 0.00 0.00 66 1019.2
20260509091603 6 316 0.0 0.0 0.00 0.00 0.00 66 1019.2
20260509091104 6 316 0.0 0.0 0.00 0.00 0.00 66 1019.3
20260509090604 6 316 0.0 0.0 0.00 0.00 0.00 65 1019.3
20260509090104 6 316 0.0 0.0 0.00 0.00 0.00 65 1019.4
20260509085104 7 316 0.0 0.0 0.00 0.00 0.00 65 1019.2
20260509084604 7 316 0.0 0.0 0.00 0.00 0.00 65 1019.3
20260509084104 7 316 0.0 0.0 0.00 0.00 0.00 65 1019.3
20260509083604 7 316 0.0 0.0 0.00 0.00 0.00 65 1019.4
20260509083103 7 316 0.0 0.0 0.00 0.00 0.00 64 1019.4
20260509082104 7 316 0.0 0.0 0.00 0.00 0.00 65 1019.4
20260509081104 7 316 0.0 0.0 0.00 0.00 0.00 64 1019.4
20260509080604 7 316 0.0 0.0 0.00 0.00 0.00 64 1019.4
20260509080105 7 317 0.0 0.0 0.00 0.00 0.00 64 1019.4
20260509075604 7 316 0.0 0.0 0.00 0.00 0.00 63 1019.4
20260509075103 7 316 0.0 0.0 0.00 0.00 0.00 63 1019.4
20260509074604 7 316 0.0 0.0 0.00 0.00 0.00 62 1019.4
20260509074104 7 316 0.0 0.0 0.00 0.00 0.00 62 1019.3
20260509073603 8 316 0.0 0.0 0.00 0.00 0.00 62 1019.3
20260509073104 8 316 0.0 0.0 0.00 0.00 0.00 61 1019.2
20260509072604 8 316 0.0 0.0 0.00 0.00 0.00 61 1019.2
20260509072104 8 316 0.0 0.0 0.00 0.00 0.00 60 1019.2
20260509071604 8 316 0.0 0.0 0.00 0.00 0.00 59 1019.2
20260509071104 8 316 0.0 0.0 0.00 0.00 0.00 60 1019.2
20260509070605 8 316 0.0 0.0 0.00 0.00 0.00 59 1019.0
20260509070104 8 316 0.0 0.0 0.00 0.00 0.00 59 1019.0
20260509065604 9 316 0.0 0.0 0.00 0.00 0.00 58 1018.8
20260509065104 9 316 0.0 0.0 0.00 0.00 0.00 58 1018.8
20260509064604 9 316 0.0 0.0 0.00 0.00 0.00 58 1018.8
20260509064105 9 316 0.0 0.0 0.00 0.00 0.00 58 1018.8
20260509063604 9 316 0.0 0.0 0.00 0.00 0.00 59 1018.8
20260509063104 10 316 0.0 0.0 0.00 0.00 0.00 58 1018.8
20260509062605 10 316 0.0 0.0 0.00 0.00 0.00 58 1018.8
20260509062104 10 316 0.0 0.0 0.00 0.00 0.00 58 1018.8
20260509061604 10 316 0.0 0.0 0.00 0.00 0.00 58 1018.7
20260509061104 10 316 0.0 0.0 0.00 0.00 0.00 57 1018.6
20260509060604 10 316 0.0 0.0 0.00 0.00 0.00 56 1018.5
20260509060105 11 316 0.0 0.0 0.00 0.00 0.00 56 1018.4
20260509055604 11 316 0.0 0.0 0.00 0.00 0.00 55 1018.4
20260509055104 11 316 0.0 0.0 0.00 0.00 0.00 55 1018.3
20260509054604 11 316 0.0 0.0 0.00 0.00 0.00 54 1018.4
20260509054104 11 316 0.0 0.0 0.00 0.00 0.00 53 1018.4
20260509053604 11 316 0.0 0.0 0.00 0.00 0.00 53 1018.4
20260509053105 11 316 0.0 0.0 0.00 0.00 0.00 53 1018.4
20260509052605 11 316 0.0 0.0 0.00 0.00 0.00 53 1018.5
20260509052104 12 316 0.0 0.0 0.00 0.00 0.00 52 1018.5
20260509051604 12 316 0.0 0.0 0.00 0.00 0.00 51 1018.5
20260509051104 12 316 0.0 0.0 0.00 0.00 0.00 51 1018.4
20260509050604 12 316 0.0 0.0 0.00 0.00 0.00 50 1018.4
20260509050104 12 316 0.0 0.0 0.00 0.00 0.00 50 1018.3
20260509045604 12 316 0.0 0.0 0.00 0.00 0.00 49 1018.1
20260509045104 13 316 0.0 0.0 0.00 0.00 0.00 48 1018.0
20260509044604 13 316 0.0 0.0 0.00 0.00 0.00 48 1018.0
20260509043604 13 316 0.0 0.0 0.00 0.00 0.00 47 1017.9
20260509043105 13 316 0.0 0.0 0.00 0.00 0.00 47 1017.8
20260509042104 14 316 0.0 0.0 0.00 0.00 0.00 45 1017.7
20260509041604 14 316 0.0 0.0 0.00 0.00 0.00 45 1017.7
20260509041104 14 316 0.0 0.0 0.00 0.00 0.00 45 1017.6
20260509040604 14 316 0.0 0.0 0.00 0.00 0.00 44 1017.5
20260509040104 14 316 0.0 0.0 0.00 0.00 0.00 44 1017.5
20260509035104 15 316 0.0 0.0 0.00 0.00 0.00 43 1017.4
20260509033604 15 316 0.0 3.2 0.00 0.00 0.00 42 1017.5
20260509033104 15 316 0.0 1.6 0.00 0.00 0.00 41 1017.5
20260509032604 15 316 0.0 1.6 0.00 0.00 0.00 41 1017.4
20260509031604 16 312 0.0 4.8 0.00 0.00 0.00 40 1017.2
20260509031104 16 244 0.0 4.8 0.00 0.00 0.00 39 1017.2
20260509030604 16 282 0.0 1.6 0.00 0.00 0.00 39 1017.2
20260509030104 16 314 0.0 4.8 0.00 0.00 0.00 38 1017.1
20260509025604 16 298 1.6 4.8 0.00 0.00 0.00 37 1017.0
20260509025104 16 328 0.0 9.7 0.00 0.00 0.00 37 1016.9
20260509024104 17 334 3.2 16.1 0.00 0.00 0.00 35 1016.6
20260509023604 17 323 0.0 9.7 0.00 0.00 0.00 35 1016.6
20260509022604 18 293 0.0 0.0 0.00 0.00 0.00 32 1016.6
20260509022104 18 323 1.6 8.0 0.00 0.00 0.00 31 1016.6
20260509021104 18 244 0.0 4.8 0.00 0.00 0.00 30 1016.3
20260509020604 19 300 0.0 1.6 0.00 0.00 0.00 30 1016.3
20260509020104 19 244 0.0 3.2 0.00 0.00 0.00 30 1016.3
20260509015605 20 331 1.6 4.8 0.00 0.00 0.00 29 1016.1
20260509015104 20 284 0.0 3.2 0.00 0.00 0.00 27 1016.0
20260509014604 20 280 0.0 4.8 0.00 0.00 0.00 25 1015.9
20260509014104 20 334 1.6 8.0 0.00 0.00 0.00 25 1015.9
20260509013104 20 297 1.6 4.8 0.00 0.00 0.00 24 1015.6
20260509012605 20 232 0.0 4.8 0.00 0.00 0.00 24 1015.5
20260509011604 21 327 0.0 4.8 0.00 0.00 0.00 26 1015.3
20260509011104 21 282 0.0 4.8 0.00 0.00 0.00 26 1015.3
20260509010605 21 291 1.6 9.7 0.00 0.00 0.00 25 1015.5
20260509010105 21 264 0.0 1.6 0.00 0.00 0.00 24 1015.4
20260509004605 21 326 1.6 4.8 0.00 0.00 0.00 25 1015.4
20260509004104 22 236 0.0 12.9 0.00 0.00 0.00 24 1015.6
20260509003604 22 210 0.0 9.7 0.00 0.00 0.00 24 1015.5
20260509003104 22 218 1.6 11.3 0.00 0.00 0.00 23 1015.5
20260509002604 22 270 0.0 8.0 0.00 0.00 0.00 23 1015.5
20260509002104 22 233 1.6 4.8 0.00 0.00 0.00 23 1015.4
20260509001604 22 350 0.0 4.8 0.00 0.00 0.00 23 1015.3
20260509001105 22 262 1.6 9.7 0.00 0.00 0.00 23 1015.4
20260509000604 23 252 0.0 3.2 0.00 0.00 0.00 23 1015.4
20260508235604 23 249 0.0 14.5 0.00 0.00 0.00 24 1015.3
20260508235104 23 255 1.6 8.0 0.00 0.00 0.00 24 1015.4
20260508233604 23 255 1.6 11.3 0.00 0.00 0.00 23 1015.4
20260508233104 23 285 0.0 3.2 0.00 0.00 0.00 23 1015.5
20260508232104 23 308 0.0 12.9 0.00 0.00 0.00 22 1015.5
20260508231104 23 238 1.6 11.3 0.00 0.00 0.00 21 1015.5
20260508230604 23 244 3.2 14.5 0.00 0.00 0.00 21 1015.5
20260508230104 23 245 1.6 11.3 0.00 0.00 0.00 22 1015.4
20260508225604 23 229 0.0 9.7 0.00 0.00 0.00 22 1015.3
20260508225104 23 244 1.6 4.8 0.00 0.00 0.00 22 1015.2
20260508224604 23 219 1.6 8.0 0.00 0.00 0.00 21 1015.4
20260508224104 23 229 1.6 4.8 0.00 0.00 0.00 21 1015.2
20260508223604 23 249 1.6 14.5 0.00 0.00 0.00 21 1015.2
20260508223104 24 331 3.2 20.9 0.00 0.00 0.00 21 1015.2
20260508222604 24 285 1.6 4.8 0.00 0.00 0.00 22 1015.3
20260508221104 23 296 3.2 8.0 0.00 0.00 0.00 22 1015.5
20260508220604 24 242 1.6 12.9 0.00 0.00 0.00 21 1015.5
20260508220105 24 248 1.6 4.8 0.00 0.00 0.00 21 1015.4
20260508215605 24 188 1.6 9.7 0.00 0.00 0.00 22 1015.5
20260508215104 23 294 0.0 8.0 0.00 0.00 0.00 21 1015.4
20260508214604 23 320 1.6 9.7 0.00 0.00 0.00 21 1015.5
20260508214104 24 313 0.0 4.8 0.00 0.00 0.00 21 1015.6
20260508213605 23 230 1.6 8.0 0.00 0.00 0.00 22 1015.5
20260508212605 23 274 0.0 3.2 0.00 0.00 0.00 22 1015.6
20260508212104 23 288 1.6 16.1 0.00 0.00 0.00 22 1015.6
20260508211604 23 216 1.6 4.8 0.00 0.00 0.00 22 1015.6
20260508211104 23 331 1.6 4.8 0.00 0.00 0.00 20 1015.7
20260508210604 23 278 0.0 4.8 0.00 0.00 0.00 21 1015.5